[[{"header":{"parameterUnit":"m.s-1","parameterCategory":1,"la1":30.2991,"la2":30.254,"lo1":-89.0895,"lo2":-89.0444,"dy":0.0017,"dx":0.0017,"nx":28,"ny":28,"refTime":"2025-08-30T09:00:00:Z","depth":0,"parameterNumber":2,"parameterNumberName":"U-component_of_WINDS"},"data":[0,0,0,0,0,0,0,0,0,0,0,0,0,0,0,0,0,0,0,0,0,0,0,0,0,0,0,0,0,0,0,0,0,0,0,0,0,0,0,0,0,0,0,0,0,0,0,0,0,0,0,0,0,0,0,0,0,0,-2.7808,-2.7808,0,-2.7824,-2.7824,-2.7825,-2.7781,-2.778,-2.7779,-2.7777,-2.7794,-2.7796,-2.7797,0,0,0,0,0,0,0,0,0,0,0,0,0,-2.7739,-2.7741,-2.7808,-2.7808,-2.7808,-2.7824,-2.7824,-2.7825,-2.7782,-2.778,-2.7778,-2.7777,-2.7793,-2.7795,-2.7797,0,0,0,0,0,0,0,0,0,0,0,0,0,-2.7764,-2.7741,-2.7808,-2.7789,-2.7787,-2.7824,-2.7825,-2.7825,-2.7782,-2.778,-2.7778,-2.7776,-2.7793,-2.7795,-2.7798,-2.7854,0,0,-2.7806,-2.7807,0,0,0,0,0,0,0,0,-2.7762,-2.7766,-2.7791,-2.779,-2.7788,-2.7799,-2.7806,-2.7835,-2.7782,-2.7784,-2.7777,-2.7775,-2.7797,-2.7799,-2.7807,-2.7855,-2.7856,-2.7806,-2.7807,-2.7808,-2.7809,0,0,0,0,0,0,0,-2.7761,-2.7765,-2.7814,-2.7792,-2.779,-2.7779,-2.7781,-2.7812,-2.7802,-2.7784,-2.778,-2.7783,-2.7796,-2.7804,-2.7807,-2.7856,-2.7806,-2.7808,-2.781,-2.7811,-2.7954,-2.7956,0,0,0,0,0,0,-2.7762,-2.7764,-2.7814,-2.7815,-2.777,-2.7782,-2.7784,-2.7797,-2.7801,-2.78,-2.7785,-2.7781,-2.7801,-2.7804,-2.7807,-2.7876,-2.7808,-2.7811,-2.7812,-2.7951,-2.7954,-2.7957,0,0,0,0,0,0,-2.776,-2.7766,-2.7813,-2.7789,-2.7794,-2.7786,-2.7801,-2.7799,-2.7807,-2.7802,-2.78,-2.7795,-2.78,-2.7804,-2.7843,-2.7875,-2.7812,-2.7814,-2.7949,-2.7952,-2.7955,-2.8012,0,0,0,0,0,0,-2.7759,-2.7766,-2.7787,-2.779,-2.7795,-2.7849,-2.7803,-2.7801,-2.7812,-2.7807,-2.7811,-2.781,-2.7798,-2.784,-2.7846,-2.7878,-2.7816,-2.7946,-2.795,-2.7954,-2.8007,-2.8016,-2.8025,0,0,0,0,0,-2.7756,-2.7802,-2.7789,-2.7795,-2.7822,-2.7851,-2.7854,-2.784,-2.7814,-2.7836,-2.7833,-2.781,-2.7871,-2.7844,-2.7851,-2.7884,-2.7944,-2.7949,-2.7954,-2.8003,-2.8015,-2.8024,0,0,0,0,0,0,-2.7803,-2.7802,-2.7787,-2.7835,-2.7843,-2.7843,-2.787,-2.7852,-2.7868,-2.7863,-2.7844,-2.7845,-2.7889,-2.789,-2.7861,-2.794,-2.7903,-2.791,-2.7938,-2.7949,-2.7958,-2.7957,-2.7818,0,0,0,0,0,-2.7819,-2.7843,-2.784,-2.7882,-2.7887,-2.7878,-2.789,-2.7879,-2.7887,-2.789,-2.789,-2.7899,-2.792,-2.7934,-2.7953,-2.8006,-2.8008,-2.8032,-2.8041,-2.8049,-2.8055,-2.8086,-2.8098,-2.7973,-2.7973,-2.7973,0,0,-2.7852,-2.7854,-2.787,-2.7892,-2.7897,-2.7923,-2.7881,-2.791,-2.7929,-2.7894,-2.7932,-2.7933,-2.7941,-2.7989,-2.801,-2.7991,-2.809,-2.8055,-2.8061,-2.8064,-2.8093,-2.8104,-2.8115,-2.7977,-2.7976,-2.7976,0,0,-2.7925,-2.7929,-2.7965,-2.7972,-2.7981,-2.7975,-2.7984,-2.7987,-2.7986,-2.8024,-2.7999,-2.8022,-2.8058,-2.8066,-2.8075,-2.8154,-2.8134,-2.816,-2.8208,-2.8238,-2.8248,-2.8256,-2.8287,-2.8298,-2.8166,-2.8166,-2.8167,0,-2.7965,-2.8003,-2.7986,-2.8018,-2.8029,-2.7999,-2.8037,-2.8044,-2.8058,-2.8067,-2.8046,-2.8092,-2.8096,-2.8146,-2.8166,-2.8173,-2.8184,-2.816,-2.8247,-2.8256,-2.8264,-2.8293,-2.8304,-2.817,-2.8169,-2.8169,-2.8169,0,-2.8053,-2.808,-2.8108,-2.8125,-2.8139,-2.8173,-2.8162,-2.8178,-2.8166,-2.8162,-2.8202,-2.8205,-2.8226,-2.8236,-2.8224,-2.8286,-2.8274,-2.825,-2.8213,-2.8279,-2.8306,-2.8317,-2.8175,-2.8173,-2.8172,-2.8171,0,0,-2.8156,-2.8164,-2.8175,-2.8183,-2.8192,-2.8212,-2.8245,-2.8266,-2.8281,-2.8292,-2.8321,-2.8353,-2.8332,-2.8342,-2.833,-2.8357,-2.8422,-2.833,-2.833,-2.8349,-2.8493,-2.8513,-2.8526,-2.8408,-2.841,-2.8412,-2.8494,0,-2.8231,-2.8289,-2.8276,-2.8334,-2.8359,-2.8332,-2.8361,-2.837,-2.8368,-2.8389,-2.8386,-2.8411,-2.8379,-2.8386,-2.841,-2.8409,-2.8451,-2.8402,-2.8437,-2.8438,-2.8437,-2.8539,-2.8559,-2.8636,-2.8504,-2.8505,-2.8507,0,-2.8326,-2.8343,-2.8403,-2.8409,-2.842,-2.8446,-2.8465,-2.8486,-2.8496,-2.8492,-2.8505,-2.8488,-2.8522,-2.8484,-2.8532,-2.8499,-2.8512,-2.8513,-2.8516,-2.852,-2.8478,-2.8549,-2.866,-2.8673,-2.8523,-2.8521,-2.852,0,-2.8399,-2.8436,-2.8477,-2.8485,-2.8492,-2.8512,-2.8516,-2.8524,-2.8538,-2.8554,-2.8563,-2.8583,-2.8595,-2.8611,-2.8601,-2.8573,-2.8651,-2.8611,-2.8651,-2.8652,-2.867,-2.8669,-2.8788,-2.8675,-2.8675,-2.8674,-2.8674,0,-2.8485,-2.8524,-2.851,-2.8536,-2.8579,-2.8564,-2.8607,-2.8608,-2.8615,-2.8641,-2.8618,-2.8643,-2.8627,-2.8651,-2.8643,-2.8685,-2.869,-2.8689,-2.8687,-2.8693,-2.8693,-2.8702,-2.8698,-2.8677,-2.8677,-2.8676,-2.8676,0,-2.8574,-2.8566,-2.8611,-2.8615,-2.8617,-2.8649,-2.8652,-2.8677,-2.8673,-2.8707,-2.8713,-2.8708,-2.8735,-2.8726,-2.8755,-2.875,-2.8804,-2.8794,-2.8802,-2.88,-2.8841,-2.8838,-2.8971,-2.8989,-2.8863,-2.8864,-2.8865,0,-2.863,-2.866,-2.8668,-2.8684,-2.869,-2.8716,-2.8731,-2.8717,-2.8733,-2.8747,-2.8771,-2.8796,-2.8816,-2.8861,-2.886,-2.8882,-2.8874,-2.8919,-2.8877,-2.8883,-2.8878,-2.8877,-2.8881,-2.8928,-2.8929,-2.8931,-2.8931,0,-2.8732,-2.8728,-2.875,-2.8771,-2.879,-2.8806,-2.8819,-2.8834,-2.8821,-2.8841,-2.8869,-2.8884,-2.8915,-2.8941,-2.8962,-2.8966,-2.8948,-2.8944,-2.8955,-2.8962,-2.8967,-2.8968,-2.8827,-2.8942,-2.8941,-2.894,-2.894,-2.8939,-2.8808,-2.8834,-2.8845,-2.8871,-2.888,-2.8894,-2.8918,-2.8918,-2.8941,-2.8965,-2.8955,-2.8988,-2.8999,-2.9025,-2.9033,-2.9059,-2.9042,-2.9057,-2.9061,-2.9066,-2.9072,-2.8961,-2.9063,-2.9062,-2.9062,-2.9062,-2.9061,0,-2.8911,-2.8917,-2.8941,-2.8962,-2.8983,-2.8963,-2.8978,-2.8997,-2.9027,-2.9038,-2.9059,-2.9092,-2.9118,-2.9119,-2.9143,-2.9164,-2.9157,-2.9172,-2.9171,-2.9173,-2.9085,-2.9074,-2.9178,-2.9178,-2.9178,-2.9178,-2.9178,-2.9178,-2.8968,-2.9011,-2.9008,-2.9057,-2.9062,-2.9094,-2.9105,-2.9118,-2.9128,-2.9167,-2.9188,-2.9189,-2.9197,-2.9222,-2.9245,-2.9245,-2.9256,-2.9275,-2.9272,-2.919,-2.9179,-2.9168,-2.9158,-2.9277,-2.9277,-2.9358,-2.9359,-2.9359]},{"header":{"parameterUnit":"m.s-1","parameterCategory":1,"la1":30.2991,"la2":30.254,"lo1":-89.0895,"lo2":-89.0444,"dy":0.0017,"dx":0.0017,"nx":28,"ny":28,"refTime":"2025-08-30T09:00:00:Z","depth":0,"parameterNumber":3,"parameterNumberName":"V-component_of_WINDS"},"data":[0,0,0,0,0,0,0,0,0,0,0,0,0,0,0,0,0,0,0,0,0,0,0,0,0,0,0,0,0,0,0,0,0,0,0,0,0,0,0,0,0,0,0,0,0,0,0,0,0,0,0,0,0,0,0,0,0,0,-1.4488,-1.4488,0,-1.4465,-1.4465,-1.4465,-1.4461,-1.4461,-1.4462,-1.4462,-1.4438,-1.4438,-1.4437,0,0,0,0,0,0,0,0,0,0,0,0,0,-1.4528,-1.4527,-1.4488,-1.4488,-1.4487,-1.4465,-1.4465,-1.4465,-1.4461,-1.4461,-1.4462,-1.4462,-1.4439,-1.4438,-1.4437,0,0,0,0,0,0,0,0,0,0,0,0,0,-1.4508,-1.4527,-1.4488,-1.4483,-1.4482,-1.4466,-1.4465,-1.4465,-1.4461,-1.4461,-1.4462,-1.4462,-1.4439,-1.4438,-1.4437,-1.4423,0,0,-1.4433,-1.4432,0,0,0,0,0,0,0,0,-1.4509,-1.4507,-1.4484,-1.4483,-1.4482,-1.4466,-1.4471,-1.4451,-1.4461,-1.4469,-1.4462,-1.4462,-1.4447,-1.4446,-1.4441,-1.4422,-1.4421,-1.4433,-1.4432,-1.4432,-1.4431,0,0,0,0,0,0,0,-1.4511,-1.4508,-1.4479,-1.4484,-1.4483,-1.4482,-1.4479,-1.4467,-1.4457,-1.4468,-1.4468,-1.4465,-1.4447,-1.4442,-1.444,-1.4421,-1.4433,-1.4432,-1.4431,-1.4431,-1.4392,-1.4391,0,0,0,0,0,0,-1.4513,-1.4509,-1.448,-1.4478,-1.4497,-1.4481,-1.4478,-1.4471,-1.4457,-1.4455,-1.4465,-1.4465,-1.4444,-1.4442,-1.4439,-1.4424,-1.4432,-1.443,-1.443,-1.4392,-1.4392,-1.4391,0,0,0,0,0,0,-1.4514,-1.451,-1.4481,-1.4494,-1.449,-1.448,-1.4472,-1.4471,-1.4465,-1.4455,-1.4453,-1.4462,-1.4444,-1.4441,-1.4428,-1.4423,-1.443,-1.4429,-1.4392,-1.4392,-1.4391,-1.4392,0,0,0,0,0,0,-1.4515,-1.4511,-1.4506,-1.4493,-1.4489,-1.4469,-1.4472,-1.447,-1.4463,-1.4463,-1.4451,-1.4449,-1.4444,-1.4429,-1.4426,-1.4421,-1.4428,-1.4393,-1.4392,-1.4392,-1.4392,-1.4391,-1.4391,0,0,0,0,0,-1.4517,-1.4506,-1.4505,-1.4502,-1.4482,-1.4469,-1.4466,-1.4461,-1.4463,-1.4458,-1.4451,-1.4449,-1.4424,-1.4428,-1.4425,-1.4419,-1.4393,-1.4392,-1.4392,-1.4392,-1.4392,-1.4391,0,0,0,0,0,0,-1.4518,-1.4505,-1.4503,-1.4489,-1.448,-1.4468,-1.4462,-1.446,-1.445,-1.445,-1.4444,-1.4441,-1.4428,-1.4422,-1.4427,-1.4406,-1.4409,-1.4407,-1.441,-1.4409,-1.4409,-1.4411,-1.4427,0,0,0,0,0,-1.4516,-1.4507,-1.4496,-1.4484,-1.448,-1.4471,-1.4465,-1.4462,-1.4452,-1.4449,-1.4441,-1.4432,-1.4422,-1.4415,-1.4405,-1.4391,-1.4389,-1.4386,-1.4385,-1.4384,-1.4383,-1.4377,-1.4375,-1.4389,-1.4389,-1.4389,0,0,-1.4513,-1.4505,-1.4499,-1.4484,-1.4477,-1.4467,-1.4468,-1.4458,-1.4451,-1.4447,-1.4434,-1.4428,-1.4418,-1.4404,-1.4398,-1.4399,-1.4379,-1.4384,-1.4383,-1.4382,-1.4376,-1.4374,-1.4373,-1.4388,-1.4389,-1.4389,0,0,-1.4503,-1.4495,-1.4485,-1.4478,-1.4467,-1.4462,-1.446,-1.4448,-1.4444,-1.4431,-1.4429,-1.442,-1.4403,-1.4396,-1.439,-1.4378,-1.4376,-1.4375,-1.4371,-1.4364,-1.4363,-1.4362,-1.4359,-1.4357,-1.4374,-1.4374,-1.4374,0,-1.45,-1.4486,-1.448,-1.447,-1.4464,-1.446,-1.445,-1.4444,-1.443,-1.4426,-1.4427,-1.4406,-1.4399,-1.4384,-1.4381,-1.4376,-1.4374,-1.4376,-1.4364,-1.4363,-1.4362,-1.4358,-1.4357,-1.4374,-1.4374,-1.4374,-1.4374,0,-1.4484,-1.4474,-1.4467,-1.4454,-1.4447,-1.4437,-1.443,-1.4424,-1.4421,-1.4416,-1.4403,-1.4394,-1.4383,-1.4379,-1.4376,-1.4364,-1.4365,-1.4365,-1.4368,-1.4361,-1.4357,-1.4356,-1.4374,-1.4374,-1.4374,-1.4374,0,0,-1.4473,-1.4458,-1.4456,-1.4451,-1.4439,-1.4431,-1.4421,-1.441,-1.4405,-1.4396,-1.4388,-1.4374,-1.4374,-1.4368,-1.4364,-1.4358,-1.435,-1.4359,-1.4358,-1.4358,-1.4337,-1.4338,-1.4336,-1.4349,-1.4349,-1.4348,-1.4338,0,-1.4462,-1.4444,-1.4439,-1.4424,-1.4416,-1.4413,-1.4404,-1.4396,-1.4391,-1.4383,-1.4377,-1.4367,-1.4368,-1.4364,-1.4358,-1.4352,-1.4346,-1.4353,-1.4342,-1.4341,-1.4345,-1.4334,-1.4334,-1.4325,-1.4337,-1.4337,-1.4337,0,-1.4446,-1.4438,-1.4422,-1.4412,-1.4408,-1.4401,-1.4391,-1.4383,-1.4374,-1.4371,-1.4364,-1.4361,-1.4351,-1.4354,-1.434,-1.4345,-1.434,-1.4337,-1.4336,-1.4335,-1.4339,-1.4333,-1.4322,-1.4321,-1.4334,-1.4334,-1.4335,0,-1.4441,-1.4426,-1.4414,-1.441,-1.4398,-1.4393,-1.4388,-1.4379,-1.4373,-1.4365,-1.4361,-1.4351,-1.4346,-1.4339,-1.4333,-1.4336,-1.432,-1.4323,-1.4318,-1.4318,-1.4315,-1.4315,-1.4303,-1.4311,-1.4311,-1.4311,-1.4311,0,-1.443,-1.4421,-1.4412,-1.4405,-1.4395,-1.439,-1.438,-1.4374,-1.4367,-1.4359,-1.4356,-1.4349,-1.4342,-1.4334,-1.433,-1.4319,-1.4317,-1.4314,-1.4313,-1.4315,-1.4315,-1.4312,-1.4312,-1.4311,-1.4311,-1.4311,-1.4311,0,-1.4423,-1.4416,-1.4404,-1.4394,-1.4391,-1.4384,-1.4376,-1.4369,-1.4364,-1.4355,-1.4352,-1.4344,-1.4335,-1.4329,-1.4317,-1.4314,-1.4303,-1.4302,-1.4306,-1.4306,-1.4301,-1.4302,-1.4287,-1.4285,-1.4294,-1.4294,-1.4294,0,-1.4416,-1.4409,-1.4398,-1.4393,-1.4388,-1.4379,-1.4373,-1.4368,-1.4362,-1.4352,-1.4346,-1.4337,-1.4329,-1.4314,-1.4307,-1.4298,-1.4297,-1.4293,-1.4296,-1.4298,-1.4298,-1.4299,-1.4298,-1.4292,-1.4292,-1.4292,-1.4292,0,-1.4405,-1.4402,-1.4394,-1.4385,-1.4378,-1.4371,-1.4363,-1.4359,-1.4352,-1.4346,-1.4336,-1.433,-1.4318,-1.4309,-1.4299,-1.4294,-1.4292,-1.4291,-1.429,-1.4291,-1.4294,-1.4293,-1.4305,-1.4292,-1.4292,-1.4292,-1.4292,-1.4292,-1.4398,-1.4392,-1.4384,-1.4375,-1.4368,-1.4362,-1.4355,-1.435,-1.4342,-1.4332,-1.4329,-1.4319,-1.4311,-1.4298,-1.4293,-1.4285,-1.4286,-1.4283,-1.4283,-1.4283,-1.4283,-1.4295,-1.4283,-1.4283,-1.4283,-1.4283,-1.4283,0,-1.4387,-1.4382,-1.4374,-1.4364,-1.4357,-1.4356,-1.4347,-1.4342,-1.4333,-1.4326,-1.4318,-1.4308,-1.4299,-1.4292,-1.4283,-1.4278,-1.4277,-1.4276,-1.4277,-1.4276,-1.4283,-1.4285,-1.4277,-1.4277,-1.4277,-1.4277,-1.4277,-1.4277,-1.4381,-1.4371,-1.4367,-1.4354,-1.4349,-1.434,-1.4335,-1.4329,-1.4323,-1.4312,-1.4304,-1.43,-1.4293,-1.4283,-1.4275,-1.4273,-1.427,-1.427,-1.4268,-1.4274,-1.4275,-1.4276,-1.4278,-1.4269,-1.4269,-1.4262,-1.4261,-1.4261]}]]